[[{"header":{"parameterUnit":"m.s-1","parameterCategory":1,"la1":30.2991,"la2":30.254,"lo1":-89.0895,"lo2":-89.0444,"dy":0.0017,"dx":0.0017,"nx":28,"ny":28,"refTime":"2024-10-03T09:00:00:Z","depth":0,"parameterNumber":2,"parameterNumberName":"U-component_of_WINDS"},"data":[0,0,0,0,0,0,0,0,0,0,0,0,0,0,0,0,0,0,0,0,0,0,0,0,0,0,0,0,0,0,0,0,0,0,0,0,0,0,0,0,0,0,0,0,0,0,0,0,0,0,0,0,0,0,0,0,0,0,-4.0548,-4.0549,0,-4.0638,-4.0639,-4.064,-4.0561,-4.0558,-4.0554,-4.0551,-4.0646,-4.0652,-4.0657,0,0,0,0,0,0,0,0,0,0,0,0,0,-4.0308,-4.0313,-4.0548,-4.0549,-4.055,-4.0638,-4.0639,-4.0641,-4.0561,-4.0557,-4.0554,-4.055,-4.0645,-4.0651,-4.0658,0,0,0,0,0,0,0,0,0,0,0,0,0,-4.0407,-4.0315,-4.0547,-4.0521,-4.0519,-4.0638,-4.0639,-4.0641,-4.0562,-4.0557,-4.0552,-4.0548,-4.0642,-4.0651,-4.0659,-4.0809,0,0,-4.0684,-4.0688,0,0,0,0,0,0,0,0,-4.0402,-4.0416,-4.0524,-4.0523,-4.0522,-4.0583,-4.059,-4.0697,-4.0564,-4.0546,-4.0551,-4.0546,-4.063,-4.0639,-4.0666,-4.0813,-4.0817,-4.0685,-4.069,-4.0694,-4.0696,0,0,0,0,0,0,0,-4.0395,-4.0412,-4.0583,-4.0525,-4.0524,-4.0505,-4.0514,-4.061,-4.0614,-4.0547,-4.0542,-4.0553,-4.0628,-4.0659,-4.0668,-4.0819,-4.0685,-4.0692,-4.0697,-4.0701,-4.1094,-4.1099,0,0,0,0,0,0,-4.039,-4.0406,-4.0581,-4.0586,-4.0448,-4.0514,-4.0523,-4.0568,-4.0613,-4.0615,-4.0558,-4.0549,-4.0647,-4.0658,-4.0671,-4.085,-4.0694,-4.0702,-4.0706,-4.1089,-4.1095,-4.1101,0,0,0,0,0,0,-4.0386,-4.0407,-4.0577,-4.0495,-4.0515,-4.0523,-4.0574,-4.0573,-4.0603,-4.0621,-4.0621,-4.0588,-4.0643,-4.0659,-4.0775,-4.0852,-4.0705,-4.0713,-4.1082,-4.1091,-4.1098,-4.1209,0,0,0,0,0,0,-4.0379,-4.0405,-4.0462,-4.0497,-4.052,-4.0679,-4.0579,-4.0578,-4.0618,-4.0608,-4.0649,-4.0652,-4.0641,-4.0763,-4.0783,-4.0861,-4.0719,-4.1075,-4.1086,-4.1095,-4.1199,-4.122,-4.1239,0,0,0,0,0,-4.0371,-4.049,-4.0465,-4.0487,-4.059,-4.0683,-4.0697,-4.0681,-4.0624,-4.0681,-4.0693,-4.065,-4.0841,-4.0776,-4.0798,-4.0879,-4.107,-4.1083,-4.1095,-4.119,-4.1216,-4.1238,0,0,0,0,0,0,-4.0464,-4.0494,-4.0467,-4.06,-4.064,-4.067,-4.0741,-4.0709,-4.0766,-4.0755,-4.0734,-4.0744,-4.0866,-4.0884,-4.0811,-4.1027,-4.0946,-4.0964,-4.1011,-4.1036,-4.1056,-4.1049,-4.0726,0,0,0,0,0,-4.0501,-4.0573,-4.0595,-4.0711,-4.0732,-4.0734,-4.0774,-4.0758,-4.0799,-4.0815,-4.0835,-4.0877,-4.0946,-4.0992,-4.1056,-4.1201,-4.121,-4.1268,-4.1288,-4.1304,-4.132,-4.1399,-4.1425,-4.1141,-4.1141,-4.1141,0,0,-4.0576,-4.0601,-4.0648,-4.073,-4.0759,-4.0836,-4.0748,-4.0833,-4.089,-4.0828,-4.0939,-4.0955,-4.1,-4.1131,-4.119,-4.115,-4.14,-4.132,-4.1333,-4.1339,-4.1414,-4.1441,-4.1465,-4.1149,-4.1148,-4.1146,0,0,-4.0753,-4.0779,-4.0878,-4.0909,-4.0954,-4.0954,-4.0978,-4.1013,-4.1022,-4.1132,-4.1088,-4.1156,-4.1275,-4.1309,-4.1342,-4.1533,-4.1497,-4.1555,-4.1659,-4.1737,-4.1759,-4.1779,-4.1848,-4.1873,-4.157,-4.157,-4.1571,0,-4.0841,-4.0954,-4.0934,-4.1022,-4.106,-4.1008,-4.1109,-4.114,-4.1204,-4.1232,-4.1186,-4.1335,-4.1362,-4.1501,-4.1548,-4.1576,-4.1604,-4.155,-4.1757,-4.1777,-4.1795,-4.1861,-4.1887,-4.1577,-4.1577,-4.1576,-4.1575,0,-4.1061,-4.114,-4.1215,-4.1278,-4.1324,-4.1419,-4.1414,-4.1464,-4.1445,-4.145,-4.1564,-4.1594,-4.1665,-4.1696,-4.1678,-4.1834,-4.1807,-4.176,-4.1678,-4.183,-4.1891,-4.1916,-4.1587,-4.1585,-4.1583,-4.1581,0,0,-4.1299,-4.135,-4.1378,-4.1406,-4.1452,-4.1513,-4.1606,-4.1674,-4.1717,-4.1763,-4.1841,-4.1944,-4.19,-4.1938,-4.1924,-4.1992,-4.2142,-4.1936,-4.1937,-4.1974,-4.2316,-4.2352,-4.2382,-4.2118,-4.2123,-4.2127,-4.2313,0,-4.1479,-4.1639,-4.1624,-4.1776,-4.185,-4.1801,-4.1882,-4.1919,-4.1927,-4.1992,-4.2,-4.2074,-4.201,-4.2033,-4.2098,-4.211,-4.2211,-4.2096,-4.2192,-4.2195,-4.2183,-4.2414,-4.2452,-4.2626,-4.2337,-4.2341,-4.2344,0,-4.1709,-4.1763,-4.1923,-4.1958,-4.1988,-4.2061,-4.2123,-4.2184,-4.2226,-4.2227,-4.227,-4.2244,-4.2339,-4.2255,-4.2385,-4.2308,-4.2346,-4.2358,-4.2364,-4.2373,-4.2279,-4.243,-4.2681,-4.2708,-4.2381,-4.2378,-4.2375,0,-4.1868,-4.1981,-4.2091,-4.2116,-4.216,-4.2213,-4.2234,-4.227,-4.2313,-4.2367,-4.2394,-4.2459,-4.2495,-4.2547,-4.254,-4.2479,-4.2673,-4.2588,-4.2678,-4.2678,-4.2722,-4.2719,-4.2984,-4.2745,-4.2745,-4.2744,-4.2744,0,-4.207,-4.217,-4.2163,-4.2231,-4.2342,-4.2324,-4.2435,-4.2449,-4.2483,-4.2554,-4.2516,-4.2583,-4.257,-4.2637,-4.2633,-4.2742,-4.2758,-4.2763,-4.2761,-4.2767,-4.2767,-4.2792,-4.278,-4.2751,-4.2749,-4.2748,-4.2747,0,-4.2267,-4.2266,-4.2383,-4.2415,-4.2426,-4.2506,-4.2534,-4.2599,-4.2603,-4.2693,-4.2714,-4.2722,-4.28,-4.2797,-4.2886,-4.2883,-4.3018,-4.3001,-4.3004,-4.3001,-4.3091,-4.3083,-4.3382,-4.3421,-4.3156,-4.3158,-4.316,0,-4.2397,-4.2472,-4.2512,-4.2557,-4.2581,-4.2653,-4.2696,-4.2682,-4.2728,-4.2782,-4.2841,-4.2915,-4.2973,-4.31,-4.3115,-4.3183,-4.3168,-4.3268,-4.3178,-4.3182,-4.3171,-4.3167,-4.3175,-4.3286,-4.3289,-4.3291,-4.3293,0,-4.2627,-4.2623,-4.2686,-4.2749,-4.2801,-4.2851,-4.2896,-4.2935,-4.2926,-4.298,-4.3059,-4.3104,-4.3195,-4.3269,-4.3335,-4.3357,-4.3325,-4.3321,-4.3346,-4.3354,-4.3352,-4.3355,-4.3053,-4.3315,-4.3313,-4.3311,-4.331,-4.3309,-4.2795,-4.286,-4.2899,-4.2971,-4.3003,-4.3046,-4.3109,-4.3122,-4.3187,-4.3259,-4.3247,-4.3335,-4.3376,-4.3461,-4.3489,-4.3559,-4.3524,-4.3559,-4.3568,-4.3577,-4.3588,-4.3341,-4.3571,-4.357,-4.3569,-4.3569,-4.3568,0,-4.3024,-4.3047,-4.3113,-4.3177,-4.3234,-4.3197,-4.3246,-4.3296,-4.3374,-4.3415,-4.3473,-4.3565,-4.3637,-4.3657,-4.3727,-4.3779,-4.3767,-4.3798,-4.3795,-4.3801,-4.3615,-4.3587,-4.3808,-4.3808,-4.3808,-4.3808,-4.3808,-4.3808,-4.3151,-4.3259,-4.326,-4.3385,-4.3407,-4.3493,-4.3524,-4.3564,-4.3597,-4.37,-4.376,-4.3772,-4.3805,-4.3877,-4.3943,-4.3947,-4.3975,-4.4013,-4.4012,-4.3838,-4.3814,-4.3791,-4.3765,-4.4019,-4.402,-4.4192,-4.4194,-4.4195]},{"header":{"parameterUnit":"m.s-1","parameterCategory":1,"la1":30.2991,"la2":30.254,"lo1":-89.0895,"lo2":-89.0444,"dy":0.0017,"dx":0.0017,"nx":28,"ny":28,"refTime":"2024-10-03T09:00:00:Z","depth":0,"parameterNumber":3,"parameterNumberName":"V-component_of_WINDS"},"data":[0,0,0,0,0,0,0,0,0,0,0,0,0,0,0,0,0,0,0,0,0,0,0,0,0,0,0,0,0,0,0,0,0,0,0,0,0,0,0,0,0,0,0,0,0,0,0,0,0,0,0,0,0,0,0,0,0,0,1.2901,1.2901,0,1.2947,1.2948,1.2948,1.2986,1.2987,1.2987,1.2988,1.3033,1.3033,1.3034,0,0,0,0,0,0,0,0,0,0,0,0,0,1.2843,1.2844,1.2901,1.2901,1.2902,1.2947,1.2948,1.2949,1.2986,1.2987,1.2987,1.2988,1.3032,1.3033,1.3034,0,0,0,0,0,0,0,0,0,0,0,0,0,1.2877,1.2844,1.2901,1.2926,1.2929,1.2947,1.2948,1.2949,1.2986,1.2987,1.2987,1.2988,1.3032,1.3033,1.3034,1.303,0,0,1.3038,1.3039,0,0,0,0,0,0,0,0,1.2875,1.2879,1.2922,1.2925,1.2928,1.2962,1.2944,1.2976,1.2986,1.2964,1.2988,1.2988,1.3008,1.3012,1.3019,1.3032,1.3034,1.3038,1.3039,1.304,1.304,0,0,0,0,0,0,0,1.2872,1.2877,1.2919,1.2922,1.2926,1.2935,1.294,1.295,1.2982,1.2966,1.2969,1.2974,1.301,1.3018,1.302,1.3035,1.3038,1.3039,1.304,1.3041,1.3048,1.3048,0,0,0,0,0,0,1.2866,1.2875,1.2918,1.2921,1.2902,1.2936,1.2942,1.295,1.2982,1.2988,1.2974,1.2976,1.3015,1.3019,1.3022,1.302,1.304,1.3041,1.3042,1.3049,1.3048,1.3048,0,0,0,0,0,0,1.2865,1.287,1.2916,1.2899,1.2905,1.2936,1.2945,1.2951,1.2958,1.2988,1.2994,1.2976,1.3016,1.302,1.3028,1.3022,1.3041,1.3042,1.3049,1.3049,1.3048,1.3015,0,0,0,0,0,0,1.2863,1.2869,1.2868,1.2898,1.2906,1.2921,1.2945,1.2951,1.2961,1.2964,1.2991,1.2996,1.3017,1.3026,1.303,1.3024,1.3043,1.305,1.3049,1.3048,1.3016,1.3013,1.301,0,0,0,0,0,1.2861,1.2856,1.2868,1.2873,1.2905,1.2921,1.2925,1.2949,1.296,1.2959,1.2978,1.2996,1.3022,1.3027,1.3031,1.3025,1.3051,1.3049,1.3048,1.3018,1.3013,1.301,0,0,0,0,0,0,1.2822,1.286,1.2874,1.2878,1.2896,1.2927,1.2927,1.2944,1.2958,1.2961,1.2989,1.2995,1.3,1.3014,1.3018,1.3024,1.3039,1.3038,1.3014,1.301,1.3007,1.3003,1.3044,0,0,0,0,0,1.2815,1.2825,1.2857,1.2858,1.2867,1.2895,1.2903,1.292,1.294,1.2947,1.2967,1.2985,1.2997,1.3005,1.3018,1.3019,1.3026,1.3017,1.3014,1.3011,1.301,1.3013,1.3009,1.3044,1.3044,1.3044,0,0,1.2798,1.282,1.2825,1.2851,1.2867,1.2877,1.2901,1.291,1.2918,1.2948,1.2957,1.2973,1.2994,1.2999,1.3002,1.3011,1.3002,1.301,1.3007,1.3008,1.3011,1.3008,1.3005,1.3043,1.3043,1.3043,0,0,1.2773,1.2791,1.2794,1.281,1.2835,1.2854,1.2855,1.2884,1.2896,1.2906,1.2929,1.2939,1.2959,1.2974,1.2984,1.2967,1.2984,1.2971,1.2953,1.2955,1.2952,1.295,1.2944,1.2942,1.297,1.297,1.297,0,1.2749,1.2766,1.2793,1.2802,1.2813,1.2843,1.2846,1.286,1.2887,1.2894,1.2903,1.2931,1.2948,1.2957,1.2953,1.296,1.2962,1.2967,1.2951,1.2949,1.2947,1.2942,1.2939,1.2968,1.2968,1.2969,1.2969,0,1.2735,1.2746,1.2746,1.2773,1.2784,1.279,1.2818,1.2826,1.2843,1.2861,1.2872,1.2893,1.2912,1.2915,1.2931,1.2927,1.2932,1.2945,1.2961,1.2941,1.2937,1.2935,1.2966,1.2966,1.2967,1.2967,0,0,1.2685,1.2729,1.2729,1.2742,1.2772,1.2781,1.2789,1.2808,1.2814,1.2833,1.2839,1.2857,1.2871,1.2883,1.2901,1.2903,1.2888,1.2916,1.2917,1.291,1.2886,1.2875,1.2872,1.29,1.29,1.29,1.2884,0,1.2665,1.2681,1.2707,1.2714,1.2725,1.2754,1.2761,1.278,1.2798,1.281,1.2829,1.2842,1.2858,1.2866,1.2869,1.2889,1.2884,1.2891,1.2906,1.2907,1.29,1.287,1.2858,1.2842,1.2883,1.2882,1.2882,0,1.2643,1.2661,1.267,1.2701,1.2706,1.2712,1.2732,1.2743,1.2766,1.2779,1.2793,1.2813,1.2823,1.2838,1.2851,1.2856,1.2864,1.2875,1.2875,1.2877,1.2893,1.287,1.2838,1.2835,1.288,1.288,1.288,0,1.2606,1.2632,1.2641,1.2652,1.2688,1.2691,1.2706,1.273,1.274,1.2758,1.2766,1.2784,1.2794,1.2807,1.2832,1.2841,1.2843,1.286,1.2854,1.2853,1.2852,1.2852,1.282,1.2858,1.2858,1.2858,1.2858,0,1.258,1.2584,1.2625,1.263,1.2636,1.2667,1.2671,1.2689,1.271,1.2719,1.2746,1.2754,1.2787,1.2799,1.2818,1.2827,1.2831,1.2841,1.2846,1.2839,1.2837,1.2844,1.2845,1.2858,1.2858,1.2858,1.2858,0,1.2539,1.2567,1.2578,1.2613,1.2622,1.2624,1.2653,1.266,1.268,1.2692,1.2696,1.2727,1.2743,1.277,1.2792,1.2806,1.281,1.2819,1.2803,1.2806,1.2798,1.2798,1.2768,1.2766,1.2806,1.2806,1.2805,0,1.252,1.2524,1.256,1.2568,1.2583,1.2597,1.2608,1.2638,1.2649,1.2676,1.2679,1.2698,1.2713,1.2737,1.2761,1.2779,1.2788,1.2777,1.2791,1.2784,1.2788,1.2788,1.2788,1.2773,1.2773,1.2772,1.2772,0,1.2484,1.2498,1.2514,1.2535,1.2548,1.2566,1.2585,1.2591,1.2625,1.2636,1.2653,1.2666,1.269,1.2707,1.2729,1.2745,1.2764,1.2768,1.2767,1.2759,1.2749,1.2754,1.2793,1.2768,1.2768,1.2768,1.2769,1.2769,1.2454,1.2459,1.2486,1.2503,1.2521,1.2538,1.2546,1.2569,1.2584,1.2606,1.2624,1.2639,1.2663,1.2695,1.2709,1.2722,1.2731,1.273,1.273,1.2729,1.2726,1.2748,1.2726,1.2726,1.2727,1.2727,1.2727,0,1.2419,1.2438,1.2454,1.248,1.2494,1.2513,1.2535,1.2545,1.2559,1.2581,1.2596,1.2616,1.2634,1.2661,1.2681,1.2686,1.2695,1.269,1.2689,1.2693,1.2717,1.2716,1.2682,1.2682,1.2682,1.2682,1.2682,1.2682,1.2403,1.2413,1.2431,1.2451,1.247,1.2486,1.2498,1.2514,1.2532,1.2553,1.2569,1.2586,1.261,1.2632,1.2649,1.2657,1.2663,1.2654,1.2665,1.2687,1.2691,1.2695,1.2693,1.2656,1.2656,1.2639,1.2639,1.2639]}]]